Time,TemperatureF,DewpointF,PressureIn,WindDirection,WindDirectionDegrees,WindSpeedMPH,WindSpeedGustMPH,Humidity,HourlyPrecipIn,Conditions,Clouds,dailyrainin,SoftwareType,DateUTC
2013-03-15 00:00:00,37.4,33.0,29.44,SSW,205,10.0,14.0,84,0.00,RA,,0.00,WeatherDisplay:10.37,2013-03-15 00:00:00,
2013-03-15 00:10:00,37.4,33.0,29.44,SW,228,10.0,19.0,84,0.00,CLR,,0.00,WeatherDisplay:10.37,2013-03-15 00:10:00,
2013-03-15 00:20:00,37.4,33.0,29.43,SW,231,9.0,14.0,84,0.00,CLR,,0.00,WeatherDisplay:10.37,2013-03-15 00:20:00,
2013-03-15 00:30:00,37.6,33.2,29.43,SW,216,12.0,19.0,84,0.00,CLR,,0.00,WeatherDisplay:10.37,2013-03-15 00:30:00,
2013-03-15 00:40:00,37.6,32.9,29.42,SW,217,7.0,12.0,83,0.00,CLR,,0.00,WeatherDisplay:10.37,2013-03-15 00:40:00,
2013-03-15 00:50:00,37.6,32.9,29.42,SW,225,18.0,22.0,83,0.00,CLR,,0.00,WeatherDisplay:10.37,2013-03-15 00:50:00,
2013-03-15 01:00:00,37.8,32.8,29.42,SW,217,14.0,20.0,82,0.00,CLR,,0.00,WeatherDisplay:10.37,2013-03-15 01:00:00,
2013-03-15 01:10:00,37.7,32.4,29.42,SW,220,12.0,16.0,81,0.00,CLR,,0.00,WeatherDisplay:10.37,2013-03-15 01:10:00,
2013-03-15 01:20:00,37.6,32.3,29.41,SSW,213,9.0,14.0,81,0.00,CLR,,0.00,WeatherDisplay:10.37,2013-03-15 01:20:00,
2013-03-15 01:30:00,37.5,32.2,29.41,SSW,210,8.0,10.0,81,0.00,CLR,,0.00,WeatherDisplay:10.37,2013-03-15 01:30:00,
2013-03-15 01:40:00,37.5,32.2,29.41,SW,214,9.0,17.0,81,0.00,CLR,,0.00,WeatherDisplay:10.37,2013-03-15 01:40:00,
2013-03-15 01:50:00,37.4,32.1,29.40,SW,215,10.0,17.0,81,0.00,CLR,,0.00,WeatherDisplay:10.37,2013-03-15 01:50:00,
2013-03-15 02:00:00,37.1,31.8,29.39,SW,215,15.0,19.0,81,0.00,CLR,,0.00,WeatherDisplay:10.37,2013-03-15 02:00:00,
2013-03-15 02:10:00,37.0,31.8,29.39,SW,218,10.0,21.0,81,0.00,CLR,,0.00,WeatherDisplay:10.37,2013-03-15 02:10:00,
2013-03-15 02:20:00,37.0,32.0,29.39,SW,229,10.0,17.0,82,0.00,CLR,,0.00,WeatherDisplay:10.37,2013-03-15 02:20:00,
2013-03-15 02:30:00,36.9,31.9,29.38,SW,218,16.0,18.0,82,0.00,CLR,,0.00,WeatherDisplay:10.37,2013-03-15 02:30:00,
2013-03-15 02:40:00,36.9,31.9,29.37,SW,225,12.0,20.0,82,0.00,CLR,,0.00,WeatherDisplay:10.37,2013-03-15 02:40:00,
2013-03-15 02:50:00,36.9,31.9,29.37,SW,221,9.0,20.0,82,0.00,CLR,,0.00,WeatherDisplay:10.37,2013-03-15 02:50:00,
2013-03-15 03:00:00,36.9,31.9,29.36,SW,214,10.0,18.0,82,0.00,CLR,,0.00,WeatherDisplay:10.37,2013-03-15 03:00:00,
2013-03-15 03:10:00,36.5,31.5,29.35,SW,225,6.0,15.0,82,0.00,CLR,,0.00,WeatherDisplay:10.37,2013-03-15 03:10:00,
2013-03-15 03:20:00,36.4,31.5,29.35,SSW,209,3.0,11.0,82,0.00,CLR,,0.00,WeatherDisplay:10.37,2013-03-15 03:20:00,
2013-03-15 03:30:00,36.5,31.5,29.34,SSW,196,10.0,16.0,82,0.00,CLR,,0.00,WeatherDisplay:10.37,2013-03-15 03:30:00,
2013-03-15 03:40:00,36.5,31.5,29.34,SW,224,9.0,18.0,82,0.00,CLR,,0.00,WeatherDisplay:10.37,2013-03-15 03:40:00,
2013-03-15 03:50:00,36.5,31.5,29.33,SW,224,10.0,17.0,82,0.00,CLR,,0.00,WeatherDisplay:10.37,2013-03-15 03:50:00,
2013-03-15 04:00:00,36.3,31.4,29.33,SSW,212,10.0,16.0,82,0.00,CLR,,0.00,WeatherDisplay:10.37,2013-03-15 04:00:00,
2013-03-15 04:10:00,36.3,31.4,29.33,SSW,210,7.0,16.0,82,0.00,CLR,,0.00,WeatherDisplay:10.37,2013-03-15 04:10:00,
2013-03-15 04:20:00,36.2,31.3,29.32,SW,230,7.0,18.0,82,0.00,CLR,,0.00,WeatherDisplay:10.37,2013-03-15 04:20:00,
2013-03-15 04:30:00,36.2,31.2,29.32,SW,225,9.0,20.0,82,0.00,CLR,,0.00,WeatherDisplay:10.37,2013-03-15 04:30:00,
2013-03-15 04:40:00,36.3,31.3,29.31,SW,226,5.0,22.0,82,0.00,CLR,,0.00,WeatherDisplay:10.37,2013-03-15 04:40:00,
2013-03-15 04:50:00,36.3,31.7,29.31,SSW,209,3.0,17.0,83,0.00,CLR,,0.00,WeatherDisplay:10.37,2013-03-15 04:50:00,
2013-03-15 05:00:00,36.3,31.7,29.31,SW,225,9.0,13.0,83,0.00,CLR,,0.00,WeatherDisplay:10.37,2013-03-15 05:00:00,
2013-03-15 05:10:00,36.3,31.7,29.31,South,186,8.0,10.0,83,0.00,CLR,,0.00,WeatherDisplay:10.37,2013-03-15 05:10:00,
2013-03-15 05:20:00,36.0,31.0,29.31,South,182,2.0,7.0,82,0.00,CLR,,0.00,WeatherDisplay:10.37,2013-03-15 05:20:00,
2013-03-15 05:30:00,36.0,31.0,29.31,SW,227,13.0,21.0,82,0.00,CLR,,0.00,WeatherDisplay:10.37,2013-03-15 05:30:00,
2013-03-15 05:40:00,36.0,31.0,29.30,SSW,208,3.0,13.0,82,0.00,CLR,,0.00,WeatherDisplay:10.37,2013-03-15 05:40:00,
2013-03-15 05:50:00,35.8,30.8,29.30,SSW,209,6.0,16.0,82,0.00,CLR,,0.00,WeatherDisplay:10.37,2013-03-15 05:50:00,
2013-03-15 06:00:00,35.3,30.4,29.30,SW,231,10.0,17.0,82,0.02,RA,,0.02,WeatherDisplay:10.37,2013-03-15 06:00:00,
2013-03-15 06:10:00,35.2,30.3,29.29,SW,222,9.0,15.0,82,0.02,RA,,0.04,WeatherDisplay:10.37,2013-03-15 06:10:00,
2013-03-15 06:20:00,35.1,30.1,29.30,SW,235,3.0,14.0,82,0.00,CLR,,0.04,WeatherDisplay:10.37,2013-03-15 06:20:00,
2013-03-15 06:30:00,35.1,30.1,29.29,SW,223,2.0,12.0,82,0.02,RA,,0.06,WeatherDisplay:10.37,2013-03-15 06:30:00,
2013-03-15 06:40:00,35.2,30.6,29.29,SW,222,1.0,14.0,83,0.00,CLR,,0.06,WeatherDisplay:10.37,2013-03-15 06:40:00,
2013-03-15 06:50:00,35.1,30.4,29.28,SSW,194,3.0,7.0,83,0.00,CLR,,0.06,WeatherDisplay:10.37,2013-03-15 06:50:00,
2013-03-15 07:00:00,35.1,30.4,29.28,SSE,168,2.0,10.0,83,0.02,RA,,0.08,WeatherDisplay:10.37,2013-03-15 07:00:00,
2013-03-15 07:10:00,35.1,30.4,29.28,SW,225,3.0,15.0,83,0.00,CLR,,0.08,WeatherDisplay:10.37,2013-03-15 07:10:00,
2013-03-15 07:20:00,35.2,30.6,29.28,SSW,192,3.0,13.0,83,0.00,CLR,,0.08,WeatherDisplay:10.37,2013-03-15 07:20:00,
2013-03-15 07:30:00,35.2,30.6,29.28,SSW,193,5.0,8.0,83,0.00,CLR,,0.08,WeatherDisplay:10.37,2013-03-15 07:30:00,
2013-03-15 07:40:00,35.1,30.4,29.28,SW,236,3.0,12.0,83,0.02,RA,,0.10,WeatherDisplay:10.37,2013-03-15 07:40:00,
2013-03-15 07:50:00,35.2,30.6,29.27,SSE,164,1.0,4.0,83,0.00,,,0.10,WeatherDisplay:10.37,2013-03-15 07:50:00,
2013-03-15 08:00:00,35.2,30.6,29.27,SW,220,3.0,7.0,83,0.00,CLR,,0.10,WeatherDisplay:10.37,2013-03-15 08:00:00,
2013-03-15 08:10:00,35.4,30.8,29.27,SW,221,1.0,7.0,83,0.02,RA,,0.12,WeatherDisplay:10.37,2013-03-15 08:10:00,
2013-03-15 08:20:00,35.8,31.1,29.27,South,174,0.0,7.0,83,0.00,CLR,,0.12,WeatherDisplay:10.37,2013-03-15 08:20:00,
2013-03-15 08:30:00,36.0,31.3,29.26,SSE,155,2.0,8.0,83,0.00,CLR,,0.12,WeatherDisplay:10.37,2013-03-15 08:30:00,
2013-03-15 08:40:00,36.1,31.5,29.26,SSW,211,8.0,15.0,83,0.02,RA,,0.14,WeatherDisplay:10.37,2013-03-15 08:40:00,
2013-03-15 08:50:00,36.1,31.5,29.26,SW,232,5.0,13.0,83,0.00,CLR,,0.14,WeatherDisplay:10.37,2013-03-15 08:50:00,
2013-03-15 09:00:00,36.5,32.1,29.26,WSW,240,10.0,17.0,84,0.00,CLR,,0.14,WeatherDisplay:10.37,2013-03-15 09:00:00,
2013-03-15 09:10:00,37.6,33.2,29.25,SW,227,10.0,16.0,84,0.00,CLR,,0.14,WeatherDisplay:10.37,2013-03-15 09:10:00,
2013-03-15 09:20:00,39.0,34.6,29.25,WSW,240,9.0,15.0,84,0.00,CLR,,0.14,WeatherDisplay:10.37,2013-03-15 09:20:00,
2013-03-15 09:30:00,40.1,35.3,29.24,WSW,243,12.0,19.0,83,0.00,CLR,,0.14,WeatherDisplay:10.37,2013-03-15 09:30:00,
2013-03-15 09:40:00,39.8,34.1,29.24,SW,229,13.0,18.0,80,0.00,CLR,,0.14,WeatherDisplay:10.37,2013-03-15 09:40:00,
2013-03-15 09:50:00,39.6,33.6,29.24,SW,231,16.0,21.0,79,0.00,CLR,,0.14,WeatherDisplay:10.37,2013-03-15 09:50:00,
2013-03-15 10:00:00,39.6,33.7,29.25,SW,227,9.0,20.0,79,0.00,CLR,,0.14,WeatherDisplay:10.37,2013-03-15 10:00:00,
2013-03-15 10:10:00,39.6,33.6,29.25,SW,225,10.0,21.0,79,0.00,CLR,,0.14,WeatherDisplay:10.37,2013-03-15 10:10:00,
2013-03-15 10:20:00,39.7,33.8,29.24,SW,222,16.0,22.0,79,0.00,CLR,,0.14,WeatherDisplay:10.37,2013-03-15 10:20:00,
2013-03-15 10:30:00,40.5,34.8,29.24,SSW,213,14.0,21.0,80,0.00,CLR,,0.14,WeatherDisplay:10.37,2013-03-15 10:30:00,
2013-03-15 10:40:00,41.3,35.6,29.24,SW,216,16.0,21.0,80,0.00,CLR,,0.14,WeatherDisplay:10.37,2013-03-15 10:40:00,
2013-03-15 10:50:00,42.1,35.7,29.24,SSW,206,9.0,22.0,78,0.00,CLR,,0.14,WeatherDisplay:10.37,2013-03-15 10:50:00,
2013-03-15 11:00:00,43.7,36.6,29.24,SSW,212,15.0,21.0,76,0.00,CLR,,0.14,WeatherDisplay:10.37,2013-03-15 11:00:00,
2013-03-15 11:10:00,42.3,34.2,29.24,SW,216,13.0,21.0,73,0.00,CLR,,0.14,WeatherDisplay:10.37,2013-03-15 11:10:00,
2013-03-15 11:20:00,41.5,34.1,29.24,SW,215,13.0,17.0,75,0.00,CLR,,0.14,WeatherDisplay:10.37,2013-03-15 11:20:00,
2013-03-15 11:30:00,41.5,34.5,29.25,SSW,211,10.0,18.0,76,0.00,CLR,,0.14,WeatherDisplay:10.37,2013-03-15 11:30:00,
2013-03-15 11:40:00,42.6,35.9,29.25,SW,215,12.0,18.0,77,0.00,CLR,,0.14,WeatherDisplay:10.37,2013-03-15 11:40:00,
2013-03-15 11:50:00,42.7,35.7,29.24,SW,216,8.0,17.0,76,0.00,CLR,,0.14,WeatherDisplay:10.37,2013-03-15 11:50:00,
2013-03-15 12:00:00,42.4,35.1,29.24,SW,215,10.0,15.0,75,0.02,RA,,0.16,WeatherDisplay:10.37,2013-03-15 12:00:00,
2013-03-15 12:10:00,42.1,34.7,29.24,SW,230,5.0,10.0,75,0.00,,,0.16,WeatherDisplay:10.37,2013-03-15 12:10:00,
2013-03-15 12:20:00,41.0,33.7,29.25,SW,233,1.0,13.0,75,0.00,CLR,,0.16,WeatherDisplay:10.37,2013-03-15 12:20:00,
2013-03-15 12:30:00,43.1,35.7,29.25,SW,229,9.0,12.0,75,0.00,CLR,,0.16,WeatherDisplay:10.37,2013-03-15 12:30:00,
2013-03-15 12:40:00,43.2,34.7,29.25,WSW,249,5.0,13.0,72,0.00,CLR,,0.16,WeatherDisplay:10.37,2013-03-15 12:40:00,
2013-03-15 12:50:00,43.0,34.2,29.25,SW,234,7.0,11.0,71,0.00,CLR,,0.16,WeatherDisplay:10.37,2013-03-15 12:50:00,
2013-03-15 13:00:00,44.4,35.2,29.25,West,260,1.0,8.0,70,0.00,CLR,,0.16,WeatherDisplay:10.37,2013-03-15 13:00:00,
2013-03-15 13:10:00,43.3,33.8,29.25,WSW,237,3.0,11.0,69,0.00,CLR,,0.16,WeatherDisplay:10.37,2013-03-15 13:10:00,
2013-03-15 13:20:00,46.4,37.1,29.25,SW,216,5.0,14.0,70,0.00,CLR,,0.16,WeatherDisplay:10.37,2013-03-15 13:20:00,
2013-03-15 13:30:00,50.4,39.0,29.24,West,268,3.0,10.0,65,0.00,CLR,,0.16,WeatherDisplay:10.37,2013-03-15 13:30:00,
2013-03-15 13:40:00,52.0,38.1,29.24,West,262,5.0,10.0,59,0.00,CLR,,0.16,WeatherDisplay:10.37,2013-03-15 13:40:00,
2013-03-15 13:50:00,50.2,34.6,29.24,SW,228,3.0,12.0,55,0.00,CLR,,0.16,WeatherDisplay:10.37,2013-03-15 13:50:00,
2013-03-15 14:00:00,47.0,32.5,29.25,SW,214,6.0,9.0,57,0.00,CLR,,0.16,WeatherDisplay:10.37,2013-03-15 14:00:00,
2013-03-15 14:10:00,44.2,31.2,29.25,SW,221,5.0,9.0,60,0.02,RA,,0.18,WeatherDisplay:10.37,2013-03-15 14:10:00,
2013-03-15 14:20:00,41.8,30.1,29.25,West,263,5.0,10.0,63,0.00,CLR,,0.18,WeatherDisplay:10.37,2013-03-15 14:20:00,
2013-03-15 14:30:00,39.1,28.3,29.25,NW,310,1.0,4.0,65,0.02,RA,,0.20,WeatherDisplay:10.37,2013-03-15 14:30:00,
2013-03-15 14:40:00,38.8,28.8,29.25,West,261,1.0,6.0,67,0.00,CLR,,0.20,WeatherDisplay:10.37,2013-03-15 14:40:00,
2013-03-15 14:50:00,40.1,31.5,29.25,WSW,254,2.0,5.0,71,0.00,CLR,,0.20,WeatherDisplay:10.37,2013-03-15 14:50:00,
2013-03-15 15:00:00,44.1,36.0,29.24,WSW,245,1.0,6.0,73,0.00,CLR,,0.20,WeatherDisplay:10.37,2013-03-15 15:00:00,
2013-03-15 15:10:00,48.4,38.3,29.24,WSW,251,3.0,10.0,68,0.00,CLR,,0.20,WeatherDisplay:10.37,2013-03-15 15:10:00,
2013-03-15 15:20:00,45.8,33.5,29.24,West,265,3.0,10.0,62,0.00,CLR,,0.20,WeatherDisplay:10.37,2013-03-15 15:20:00,
2013-03-15 15:30:00,44.8,33.3,29.24,West,262,2.0,6.0,64,0.00,CLR,,0.20,WeatherDisplay:10.37,2013-03-15 15:30:00,
2013-03-15 15:40:00,46.6,34.7,29.25,WSW,244,3.0,9.0,63,0.00,CLR,,0.20,WeatherDisplay:10.37,2013-03-15 15:40:00,
2013-03-15 15:50:00,47.3,34.5,29.25,WSW,250,7.0,8.0,61,0.00,CLR,,0.20,WeatherDisplay:10.37,2013-03-15 15:50:00,
2013-03-15 16:00:00,47.9,33.8,29.24,WSW,256,7.0,12.0,58,0.00,CLR,,0.20,WeatherDisplay:10.37,2013-03-15 16:00:00,
2013-03-15 16:10:00,46.0,31.6,29.24,WSW,251,3.0,12.0,57,0.00,CLR,,0.20,WeatherDisplay:10.37,2013-03-15 16:10:00,
2013-03-15 16:20:00,45.3,31.0,29.24,West,269,2.0,6.0,57,0.00,CLR,,0.20,WeatherDisplay:10.37,2013-03-15 16:20:00,
2013-03-15 16:30:00,44.5,30.6,29.24,West,269,1.0,6.0,58,0.00,CLR,,0.20,WeatherDisplay:10.37,2013-03-15 16:30:00,
2013-03-15 16:40:00,43.7,29.9,29.24,SW,233,1.0,6.0,58,0.00,CLR,,0.20,WeatherDisplay:10.37,2013-03-15 16:40:00,
2013-03-15 16:50:00,43.0,29.6,29.24,West,273,2.0,4.0,59,0.00,CLR,,0.20,WeatherDisplay:10.37,2013-03-15 16:50:00,
2013-03-15 17:00:00,41.4,28.5,29.24,West,265,1.0,6.0,60,0.00,CLR,,0.20,WeatherDisplay:10.37,2013-03-15 17:00:00,
2013-03-15 17:10:00,39.4,27.0,29.24,WNW,287,0.0,2.0,61,0.00,CLR,,0.20,WeatherDisplay:10.37,2013-03-15 17:10:00,
2013-03-15 17:20:00,37.8,25.9,29.25,WNW,286,1.0,2.0,62,0.00,CLR,,0.20,WeatherDisplay:10.37,2013-03-15 17:20:00,
2013-03-15 17:30:00,37.6,26.5,29.25,WNW,285,1.0,2.0,64,0.00,CLR,,0.20,WeatherDisplay:10.37,2013-03-15 17:30:00,
2013-03-15 17:40:00,36.5,25.8,29.25,West,280,1.0,2.0,65,0.00,CLR,,0.20,WeatherDisplay:10.37,2013-03-15 17:40:00,
2013-03-15 17:50:00,35.5,25.3,29.25,WNW,288,0.0,2.0,66,0.00,CLR,,0.20,WeatherDisplay:10.37,2013-03-15 17:50:00,
2013-03-15 18:00:00,34.3,24.5,29.26,NW,315,0.0,2.0,67,0.00,CLR,,0.20,WeatherDisplay:10.37,2013-03-15 18:00:00,
2013-03-15 18:10:00,33.3,23.5,29.26,NW,315,0.0,0.0,67,0.00,CLR,,0.20,WeatherDisplay:10.37,2013-03-15 18:10:00,
2013-03-15 18:20:00,32.7,23.7,29.26,WNW,294,0.0,1.0,69,0.00,CLR,,0.20,WeatherDisplay:10.37,2013-03-15 18:20:00,
2013-03-15 18:30:00,32.3,23.6,29.27,WNW,292,0.0,1.0,70,0.00,CLR,,0.20,WeatherDisplay:10.37,2013-03-15 18:30:00,
2013-03-15 18:40:00,31.6,23.3,29.26,NW,311,0.0,2.0,71,0.00,CLR,,0.20,WeatherDisplay:10.37,2013-03-15 18:40:00,
2013-03-15 18:50:00,31.3,23.3,29.27,NNW,338,0.0,2.0,72,0.00,CLR,,0.20,WeatherDisplay:10.37,2013-03-15 18:50:00,
2013-03-15 19:00:00,31.5,23.5,29.27,NW,317,0.0,2.0,72,0.00,CLR,,0.20,WeatherDisplay:10.37,2013-03-15 19:00:00,
2013-03-15 19:10:00,31.6,23.9,29.26,NNW,337,0.0,1.0,73,0.00,CLR,,0.20,WeatherDisplay:10.37,2013-03-15 19:10:00,
2013-03-15 19:20:00,30.9,23.3,29.26,NW,311,1.0,2.0,73,0.00,CLR,,0.20,WeatherDisplay:10.37,2013-03-15 19:20:00,
2013-03-15 19:30:00,29.5,21.9,29.26,SW,214,0.0,1.0,73,0.00,CLR,,0.20,WeatherDisplay:10.37,2013-03-15 19:30:00,
2013-03-15 19:40:00,28.6,21.0,29.26,SSW,211,0.0,2.0,73,0.00,CLR,,0.20,WeatherDisplay:10.37,2013-03-15 19:40:00,
2013-03-15 19:50:00,28.0,20.5,29.26,SW,225,0.0,1.0,73,0.00,CLR,,0.20,WeatherDisplay:10.37,2013-03-15 19:50:00,
2013-03-15 20:00:00,27.3,19.7,29.26,WSW,246,0.0,2.0,73,0.00,CLR,,0.20,WeatherDisplay:10.37,2013-03-15 20:00:00,
2013-03-15 20:10:00,26.3,18.8,29.26,WSW,248,0.0,0.0,73,0.00,CLR,,0.20,WeatherDisplay:10.37,2013-03-15 20:10:00,
2013-03-15 20:20:00,25.9,18.4,29.27,WSW,248,0.0,1.0,73,0.00,CLR,,0.20,WeatherDisplay:10.37,2013-03-15 20:20:00,
2013-03-15 20:30:00,25.7,18.2,29.27,WSW,251,1.0,2.0,73,0.00,CLR,,0.20,WeatherDisplay:10.37,2013-03-15 20:30:00,
2013-03-15 20:40:00,25.7,18.6,29.27,WSW,248,0.0,3.0,74,0.00,CLR,,0.20,WeatherDisplay:10.37,2013-03-15 20:40:00,
2013-03-15 20:50:00,24.9,17.8,29.27,WSW,248,0.0,0.0,74,0.00,CLR,,0.20,WeatherDisplay:10.37,2013-03-15 20:50:00,
2013-03-15 21:00:00,24.4,17.3,29.26,WSW,248,1.0,2.0,74,0.00,CLR,,0.20,WeatherDisplay:10.37,2013-03-15 21:00:00,
2013-03-15 21:10:00,24.9,17.7,29.27,WSW,248,2.0,3.0,74,0.00,CLR,,0.20,WeatherDisplay:10.37,2013-03-15 21:10:00,
2013-03-15 21:40:00,25.2,18.7,29.27,WSW,248,2.0,2.0,76,0.00,CLR,,0.20,WeatherDisplay:10.37,2013-03-15 21:40:00,
2013-03-15 21:50:00,25.2,18.7,29.27,WSW,248,1.0,2.0,76,0.00,CLR,,0.20,WeatherDisplay:10.37,2013-03-15 21:50:00,
2013-03-15 22:00:00,25.0,18.5,29.27,WSW,248,1.0,2.0,76,0.00,CLR,,0.20,WeatherDisplay:10.37,2013-03-15 22:00:00,
2013-03-15 22:10:00,24.9,18.4,29.27,WSW,248,6.0,6.0,76,0.00,CLR,,0.20,WeatherDisplay:10.37,2013-03-15 22:10:00,
2013-03-15 22:20:00,25.3,18.8,29.27,WSW,248,1.0,5.0,76,0.00,CLR,,0.20,WeatherDisplay:10.37,2013-03-15 22:20:00,
2013-03-15 22:30:00,25.0,18.5,29.27,WSW,248,1.0,3.0,76,0.00,CLR,,0.20,WeatherDisplay:10.37,2013-03-15 22:30:00,
2013-03-15 22:40:00,25.2,19.0,29.28,WSW,248,0.0,5.0,77,0.00,CLR,,0.20,WeatherDisplay:10.37,2013-03-15 22:40:00,
2013-03-15 22:50:00,24.9,18.7,29.27,WSW,248,0.0,2.0,77,0.00,CLR,,0.20,WeatherDisplay:10.37,2013-03-15 22:50:00,
2013-03-15 23:00:00,25.0,18.8,29.27,WSW,248,2.0,2.0,77,0.00,CLR,,0.20,WeatherDisplay:10.37,2013-03-15 23:00:00,
2013-03-15 23:10:00,24.9,18.7,29.27,WSW,248,1.0,2.0,77,0.00,CLR,,0.20,WeatherDisplay:10.37,2013-03-15 23:10:00,
2013-03-15 23:20:00,25.0,18.8,29.27,WSW,248,0.0,2.0,77,0.00,CLR,,0.20,WeatherDisplay:10.37,2013-03-15 23:20:00,
2013-03-15 23:30:00,25.5,19.6,29.27,WSW,248,1.0,4.0,78,0.00,CLR,,0.20,WeatherDisplay:10.37,2013-03-15 23:30:00,
2013-03-15 23:40:00,26.1,20.5,29.27,WSW,248,0.0,3.0,79,0.00,CLR,,0.20,WeatherDisplay:10.37,2013-03-15 23:40:00,
2013-03-15 23:50:00,26.8,21.1,29.26,WSW,248,1.0,2.0,79,0.00,CLR,,0.20,WeatherDisplay:10.37,2013-03-15 23:50:00,